TimeEST,TemperatureF,Dew PointF,Humidity,Sea Level PressureIn,VisibilityMPH,Wind Direction,Wind SpeedMPH,Gust SpeedMPH,PrecipitationIn,Events,Conditions,WindDirDegrees,DateUTC
12:15 AM,32.5,32.4,99,30.17,10.0,Calm,Calm,-,N/A,,Mostly Cloudy,0,2013-01-18 05:15:00
12:35 AM,32.4,32.2,99,30.19,10.0,Calm,Calm,-,N/A,,Clear,0,2013-01-18 05:35:00
12:55 AM,31.6,31.5,99,30.18,4.0,Calm,Calm,-,N/A,,Clear,0,2013-01-18 05:55:00
1:15 AM,31.8,31.6,99,30.20,2.0,Calm,Calm,-,N/A,,Scattered Clouds,0,2013-01-18 06:15:00
1:35 AM,31.6,31.6,100,30.21,2.5,Calm,Calm,-,N/A,,Scattered Clouds,0,2013-01-18 06:35:00
1:55 AM,32.5,32.5,100,30.22,10.0,WNW,3.5,-,N/A,,Clear,300,2013-01-18 06:55:00
2:15 AM,33.4,31.8,94,30.22,10.0,NNW,3.5,-,N/A,,Clear,340,2013-01-18 07:15:00
2:35 AM,33.8,31.1,90,30.24,10.0,NW,3.5,-,N/A,,Clear,310,2013-01-18 07:35:00
2:55 AM,32.9,30.6,91,30.24,10.0,Calm,Calm,-,N/A,,Clear,0,2013-01-18 07:55:00
3:15 AM,33.3,30.2,89,30.25,10.0,NW,3.5,-,N/A,,Clear,320,2013-01-18 08:15:00
3:35 AM,32.9,29.7,88,30.25,10.0,Calm,Calm,-,N/A,,Clear,0,2013-01-18 08:35:00
3:55 AM,32.7,29.1,87,30.26,10.0,Calm,Calm,-,N/A,,Clear,0,2013-01-18 08:55:00
4:15 AM,32.2,28.4,86,30.27,10.0,Calm,Calm,-,N/A,,Clear,0,2013-01-18 09:15:00
4:35 AM,32.4,28.4,85,30.27,10.0,NNW,3.5,-,N/A,,Clear,330,2013-01-18 09:35:00
4:55 AM,32.0,28.2,86,30.28,10.0,NNW,3.5,-,N/A,,Clear,330,2013-01-18 09:55:00
5:15 AM,31.8,28.2,87,30.28,10.0,NNW,3.5,-,N/A,,Clear,330,2013-01-18 10:15:00
5:35 AM,32.0,27.7,84,30.30,10.0,Calm,Calm,-,N/A,,Clear,0,2013-01-18 10:35:00
5:55 AM,31.1,27.7,87,30.31,10.0,Calm,Calm,-,N/A,,Clear,0,2013-01-18 10:55:00
6:15 AM,28.9,27.3,94,30.32,10.0,Calm,Calm,-,N/A,,Clear,0,2013-01-18 11:15:00
6:35 AM,28.4,27.1,95,30.33,10.0,Calm,Calm,-,N/A,,Clear,0,2013-01-18 11:35:00
6:55 AM,28.0,26.2,93,30.34,10.0,Calm,Calm,-,N/A,,Clear,0,2013-01-18 11:55:00
7:15 AM,26.6,25.5,96,30.35,7.0,Calm,Calm,-,N/A,,Clear,0,2013-01-18 12:15:00
7:35 AM,26.2,25.3,96,30.36,4.0,Calm,Calm,-,N/A,,Clear,0,2013-01-18 12:35:00
7:55 AM,27.5,27.0,98,30.37,3.0,Calm,Calm,-,N/A,,Clear,0,2013-01-18 12:55:00
8:15 AM,27.0,26.4,98,30.39,5.0,Calm,Calm,-,N/A,,Clear,0,2013-01-18 13:15:00
8:35 AM,28.6,27.7,96,30.40,7.0,Calm,Calm,-,N/A,,Clear,0,2013-01-18 13:35:00
8:55 AM,31.8,30.6,95,30.42,10.0,Calm,Calm,-,N/A,,Clear,0,2013-01-18 13:55:00
9:15 AM,32.0,30.0,92,30.43,10.0,Calm,Calm,-,N/A,,Clear,0,2013-01-18 14:15:00
9:35 AM,33.3,30.9,91,30.45,10.0,Calm,Calm,-,N/A,,Clear,0,2013-01-18 14:35:00
9:55 AM,35.2,28.9,78,30.47,10.0,West,3.5,-,N/A,,Clear,280,2013-01-18 14:55:00
10:15 AM,35.8,27.9,73,30.48,10.0,Calm,Calm,-,N/A,,Clear,0,2013-01-18 15:15:00
10:35 AM,36.5,28.9,74,30.48,10.0,Calm,Calm,-,N/A,,Clear,0,2013-01-18 15:35:00
10:55 AM,37.2,28.9,72,30.48,10.0,West,3.5,-,N/A,,Clear,280,2013-01-18 15:55:00
11:15 AM,37.8,28.6,69,30.48,10.0,NW,3.5,-,N/A,,Clear,310,2013-01-18 16:15:00
11:35 AM,38.3,29.5,71,30.48,10.0,WNW,5.8,-,N/A,,Clear,300,2013-01-18 16:35:00
11:55 AM,38.8,28.4,66,30.48,10.0,NW,4.6,-,N/A,,Clear,310,2013-01-18 16:55:00
12:15 PM,39.2,28.2,65,30.47,10.0,NNW,3.5,-,N/A,,Clear,330,2013-01-18 17:15:00
12:35 PM,39.6,28.0,63,30.47,10.0,NNW,3.5,-,N/A,,Clear,340,2013-01-18 17:35:00
12:55 PM,39.4,25.5,58,30.46,10.0,Calm,Calm,-,N/A,,Clear,0,2013-01-18 17:55:00
1:15 PM,40.5,27.5,60,30.46,10.0,Calm,Calm,-,N/A,,Clear,0,2013-01-18 18:15:00
1:35 PM,41.2,27.9,59,30.46,10.0,Calm,Calm,-,N/A,,Clear,0,2013-01-18 18:35:00
1:55 PM,41.5,28.2,59,30.46,10.0,Calm,Calm,-,N/A,,Clear,0,2013-01-18 18:55:00
2:15 PM,41.7,27.0,56,30.46,10.0,West,6.9,-,N/A,,Clear,280,2013-01-18 19:15:00
2:35 PM,42.1,25.7,52,30.46,10.0,WNW,4.6,-,N/A,,Clear,290,2013-01-18 19:35:00
2:55 PM,42.3,25.5,52,30.46,10.0,West,3.5,-,N/A,,Clear,270,2013-01-18 19:55:00
3:15 PM,42.4,24.8,50,30.46,10.0,North,3.5,-,N/A,,Clear,10,2013-01-18 20:15:00
3:35 PM,42.8,24.4,48,30.46,10.0,WNW,3.5,-,N/A,,Clear,300,2013-01-18 20:35:00
3:55 PM,42.8,25.0,49,30.47,10.0,Calm,Calm,-,N/A,,Clear,0,2013-01-18 20:55:00
4:15 PM,43.0,25.5,50,30.47,10.0,Calm,Calm,-,N/A,,Clear,0,2013-01-18 21:15:00
4:35 PM,42.4,23.5,47,30.48,10.0,Calm,Calm,-,N/A,,Clear,0,2013-01-18 21:35:00
4:55 PM,42.3,22.6,46,30.49,10.0,Calm,Calm,-,N/A,,Clear,0,2013-01-18 21:55:00
5:15 PM,40.3,26.4,58,30.49,10.0,Calm,Calm,-,N/A,,Clear,0,2013-01-18 22:15:00
5:35 PM,35.1,29.8,81,30.49,10.0,Calm,Calm,-,N/A,,Clear,0,2013-01-18 22:35:00
5:55 PM,33.6,30.2,87,30.49,10.0,Calm,Calm,-,N/A,,Clear,0,2013-01-18 22:55:00
6:15 PM,31.8,29.3,90,30.50,10.0,Calm,Calm,-,N/A,,Clear,0,2013-01-18 23:15:00
6:35 PM,31.1,28.4,90,30.51,10.0,Calm,Calm,-,N/A,,Clear,0,2013-01-18 23:35:00
6:55 PM,29.8,27.9,92,30.51,10.0,Calm,Calm,-,N/A,,Clear,0,2013-01-18 23:55:00
7:15 PM,29.1,27.3,93,30.51,10.0,Calm,Calm,-,N/A,,Clear,0,2013-01-19 00:15:00
7:35 PM,29.7,28.0,94,30.52,10.0,Calm,Calm,-,N/A,,Clear,0,2013-01-19 00:35:00
7:55 PM,28.4,27.3,96,30.51,10.0,Calm,Calm,-,N/A,,Clear,0,2013-01-19 00:55:00
8:15 PM,28.0,26.6,94,30.51,10.0,Calm,Calm,-,N/A,,Clear,0,2013-01-19 01:15:00
8:35 PM,28.0,27.1,96,30.51,10.0,Calm,Calm,-,N/A,,Clear,0,2013-01-19 01:35:00
8:55 PM,27.7,26.8,96,30.50,10.0,Calm,Calm,-,N/A,,Clear,0,2013-01-19 01:55:00
9:15 PM,27.7,26.6,96,30.51,10.0,Calm,Calm,-,N/A,,Clear,0,2013-01-19 02:15:00
9:35 PM,27.5,26.6,96,30.51,10.0,Calm,Calm,-,N/A,,Clear,0,2013-01-19 02:35:00
9:55 PM,27.0,25.7,95,30.50,10.0,Calm,Calm,-,N/A,,Clear,0,2013-01-19 02:55:00
10:35 PM,27.3,26.4,96,30.49,10.0,Calm,Calm,-,N/A,,Clear,0,2013-01-19 03:35:00
10:55 PM,27.0,26.1,96,30.49,10.0,Calm,Calm,-,N/A,,Clear,0,2013-01-19 03:55:00
11:15 PM,26.4,25.5,96,30.49,10.0,Calm,Calm,-,N/A,,Clear,0,2013-01-19 04:15:00
11:35 PM,24.8,23.9,96,30.49,10.0,Calm,Calm,-,N/A,,Clear,0,2013-01-19 04:35:00
11:55 PM,25.5,24.8,97,30.48,10.0,Calm,Calm,-,N/A,,Clear,0,2013-01-19 04:55:00